User: anonymous   Login
Location: Slanting_Bridge
(35.6330°N, 80.9830°W)
Time: 08:40:25
(UTC-04:00)
Language:

Hamsat - Orbit

View from above orbital plane
View from above orbital plane
View from above satellite
View from above satellite

Ground track
Ground track

The orbit data is extracted from the following two-line orbital elements,

1 28650U 05017B   16180.89786051  .00000318  00000-0  39960-4 0  9997
2 28650  97.6084 162.2692 0022654 217.6546 142.3086 14.88310816603615
Epoch (UTC): 28 June 2016 21:32:55
Eccentricity: 0.0022654
inclination: 97.6084°
perigee height: 587 km
apogee height: 619 km
right ascension of ascending node: 162.2692°
argument of perigee: 217.6546°
revolutions per day: 14.88310816
mean anomaly at epoch: 142.3086°
orbit number at epoch: 60361

The dashed part of the orbit path shows where the satellite is in the earth's shadow,  

DLR